Location: Spor
(46.2167°N, 11.0500°E)
Time: 23:39:55
(UTC+00:00)

Shenzhou-11 Module - Visible Passes

Search period start: 01 October 2020 00:00
Search period end: 11 October 2020 00:00
Orbit: 197 x 211 km, 42.8° (Epoch: 01 October)

Date Brightness Start Highest point End Pass type
(mag) Time Alt. Az. Time Alt. Az. Time Alt. Az.
01 Oct 4.0 18:30:24 10° SW 18:30:43 11° SW 18:30:43 11° SW visible
02 Oct 3.7 18:04:39 10° SW 18:05:22 11° SSW 18:05:53 11° S visible
03 Oct 3.8 17:37:34 10° SW 17:38:01 11° SSW 17:38:26 10° S visible
